Location: Unspecified
(0.0000°N, 0.0000°E)
Time: 17:14:02
(UTC+00:00)

Explorer 7 - All Passes

Search period start: 21 December 2014 00:00
Search period end: 31 December 2014 00:00
Orbit: 490 x 701 km, 50.3° (Epoch: 20 December)

Date Brightness Start Highest point End Pass type
(mag) Time Alt. Az. Time Alt. Az. Time Alt. Az.
21 Dec - 01:46:00 10° S 01:49:24 18° SE 01:52:48 10° E night (unlit)
21 Dec - 03:25:32 10° WSW 03:30:12 38° NW 03:34:47 10° NNE night (unlit)
21 Dec - 13:51:22 10° N 13:54:01 18° NE 13:56:39 10° E daylight
21 Dec - 15:31:51 10° W 15:34:35 19° SW 15:37:20 10° S daylight
22 Dec - 01:54:03 10° SSW 01:58:41 38° SE 02:03:17 10° ENE night (unlit)
22 Dec - 03:36:01 10° W 03:39:27 18° NW 03:42:50 10° N night (unlit)
22 Dec - 13:59:37 10° NNW 14:03:14 46° NE 14:06:52 10° SE daylight
23 Dec - 02:02:53 10° SW 02:07:54 83° SE 02:12:53 10° NE night (unlit)
23 Dec - 14:08:43 10° NW 14:12:26 60° SW 14:16:10 10° SSE daylight
24 Dec - 00:33:22 10° SSE 00:36:18 16° SE 00:39:15 10° E night (unlit)
24 Dec - 02:12:19 10° SW 02:17:06 45° NW 02:21:51 10° NNE night (unlit)
24 Dec - 12:38:46 10° NNE 12:41:04 15° NE 12:43:20 10° E daylight
24 Dec - 14:18:38 10° WNW 14:21:38 22° SW 14:24:38 10° S daylight
25 Dec - 00:41:07 10° S 00:45:32 32° SE 00:50:00 10° ENE night (unlit)
25 Dec - 02:22:31 10° WSW 02:26:18 21° NW 02:30:05 10° N night (unlit)
25 Dec - 12:46:43 10° NNW 12:50:16 38° NE 12:53:47 10° ESE daylight
26 Dec - 00:49:46 10° SSW 00:54:43 71° SE 00:59:42 10° NE night (unlit)
26 Dec - 12:55:38 10° NW 12:59:26 75° SW 13:03:11 10° SSE daylight
26 Dec - 23:20:50 10° SSE 23:23:06 13° SE 23:25:23 10° E night (unlit)
27 Dec - 00:59:02 10° SW 01:03:52 53° NW 01:08:45 10° NNE night (unlit)
27 Dec - 11:26:08 10° NNE 11:27:58 13° NE 11:29:48 10° E daylight
27 Dec - 13:05:19 10° WNW 13:08:34 27° SW 13:11:48 10° S daylight
27 Dec - 23:28:08 10° S 23:32:17 27° SE 23:36:30 10° ENE night (unlit)
28 Dec - 01:09:00 10° WSW 01:13:02 25° NW 01:17:07 10° N night (unlit)
28 Dec - 11:33:41 10° NNW 11:37:10 31° NE 11:40:33 10° ESE daylight
28 Dec - 13:16:38 10° WSW 13:17:44 11° SW 13:18:49 10° SW daylight
28 Dec - 23:36:35 10° SSW 23:41:24 59° SE 23:46:20 10° NE night (unlit)
29 Dec - 01:20:29 10° WNW 01:22:15 12° NW 01:24:01 10° NNW night (unlit)
29 Dec - 11:42:25 10° NW 11:46:17 88° NE 11:50:04 10° SE daylight
29 Dec - 22:08:41 10° SE 22:09:46 11° SE 22:10:51 10° ESE night (unlit)
29 Dec - 23:45:41 10° SW 23:50:31 63° NW 23:55:28 10° NNE night (unlit)
30 Dec - 10:13:33 10° NNE 10:14:44 11° NE 10:15:55 10° ENE daylight
30 Dec - 11:51:53 10° WNW 11:55:23 33° SW 11:58:48 10° SSE daylight
30 Dec - 22:15:06 10° S 22:18:54 23° SE 22:22:48 10° ENE night (unlit)
30 Dec - 23:55:25 10° WSW 23:59:38 29° NW 00:00:00 28° NW night (unlit)
